This is the latest recevied weather packets stored in our database for station/object E20YUC-1. If no packets are shown the sender has not sent any weather packets the latest 10 day(s).
| Time | Temp. | Humidity | Pressure | Rain* | Wind** | Luminosity | Snow |
|---|---|---|---|---|---|---|---|
| 1787382782 | 32.22° C | 68% | 996 hPa | 0 mm | 3.13 m/s, 0° | - | - |
| 1787382484 | 32.22° C | 68% | 995.9 hPa | 0 mm | 1.79 m/s, 0° | - | - |
| 1787381882 | 32.22° C | 68% | 996 hPa | 0 mm | 4.02 m/s, 0° | - | - |
| 1787381282 | 32.22° C | 67% | 995.8 hPa | 0 mm | 5.36 m/s, 0° | - | - |
| 1787380984 | 32.22° C | 68% | 995.9 hPa | 0 mm | 4.02 m/s, 0° | - | - |
| 1787380682 | 32.22° C | 67% | 995.9 hPa | 0 mm | 2.68 m/s, 0° | - | - |
| 1787380082 | 32.22° C | 68% | 996 hPa | 0 mm | 1.79 m/s, 0° | - | - |
| 1787379484 | 32.22° C | 68% | 996.2 hPa | 0 mm | 4.47 m/s, 0° | - | - |
| 1787379182 | 32.22° C | 68% | 996.3 hPa | 0 mm | 0.89 m/s, 0° | - | - |
| 1787378882 | 32.22° C | 68% | 996.4 hPa | 0 mm | 1.34 m/s, 22° | - | - |
| 1787378282 | 32.22° C | 68% | 996.5 hPa | 0 mm | 4.92 m/s, 0° | - | - |
| 1787377989 | 32.22° C | 68% | 996.5 hPa | 0 mm | 4.47 m/s, 0° | - | - |
| 1787377682 | 32.22° C | 68% | 996.4 hPa | 0 mm | 1.79 m/s, 0° | - | - |
| 1787377081 | 31.67° C | 68% | 996.8 hPa | 0 mm | 4.92 m/s, 0° | - | - |
| 1787376781 | 31.67° C | 69% | 996.8 hPa | 0 mm | 2.24 m/s, 0° | - | - |
| 1787376483 | 31.67° C | 69% | 996.9 hPa | 0 mm | 1.34 m/s, 0° | - | - |
| 1787376181 | 31.67° C | 69% | 996.9 hPa | 0 mm | 4.47 m/s, 0° | - | - |
| 1787375881 | 31.67° C | 69% | 996.8 hPa | 0 mm | 1.79 m/s, 0° | - | - |
| 1787375581 | 31.67° C | 69% | 996.9 hPa | 0 mm | 0.45 m/s, 0° | - | - |
| 1787375281 | 31.67° C | 69% | 997 hPa | 0 mm | 1.34 m/s, 0° | - | - |
| 1787374983 | 31.67° C | 69% | 997.1 hPa | 0 mm | 2.68 m/s, 0° | - | - |
| 1787374687 | 31.67° C | 69% | 997 hPa | 0 mm | 1.34 m/s, 0° | - | - |
| 1787374381 | 31.11° C | 69% | 997 hPa | 0 mm | 2.24 m/s, 0° | - | - |
| 1787373781 | 31.11° C | 70% | 997.3 hPa | 0 mm | 0 m/s | - | - |
| 1787373483 | 31.11° C | 70% | 997.4 hPa | 0 mm | 1.79 m/s, 0° | - | - |
* Rain latest hour (hover to see other rain measurements)
** Current wind speed in m/s (hover to see current wind gust speed)